[[{"header":{"parameterUnit":"m.s-1","parameterCategory":1,"la1":30.2991,"la2":30.254,"lo1":-89.0895,"lo2":-89.0444,"dy":0.0017,"dx":0.0017,"nx":28,"ny":28,"refTime":"2024-04-13T21:00:00:Z","depth":0,"parameterNumber":2,"parameterNumberName":"U-component_of_WINDS"},"data":[0,0,0,0,0,0,0,0,0,0,0,0,0,0,0,0,0,0,0,0,0,0,0,0,0,0,0,0,0,0,0,0,0,0,0,0,0,0,0,0,0,0,0,0,0,0,0,0,0,0,0,0,0,0,0,0,0,0,-2.6884,-2.6884,0,-2.6874,-2.6874,-2.6874,-2.682,-2.6818,-2.6817,-2.6816,-2.6807,-2.6808,-2.6809,0,0,0,0,0,0,0,0,0,0,0,0,0,-2.6857,-2.6858,-2.6884,-2.6884,-2.6884,-2.6874,-2.6874,-2.6874,-2.682,-2.6818,-2.6817,-2.6815,-2.6806,-2.6807,-2.6809,0,0,0,0,0,0,0,0,0,0,0,0,0,-2.686,-2.6858,-2.6884,-2.6856,-2.6853,-2.6874,-2.6874,-2.6874,-2.682,-2.6818,-2.6816,-2.6815,-2.6806,-2.6807,-2.6809,-2.6857,0,0,-2.6813,-2.6814,0,0,0,0,0,0,0,0,-2.686,-2.6861,-2.686,-2.6858,-2.6855,-2.6846,-2.6861,-2.6868,-2.6821,-2.6833,-2.6816,-2.6814,-2.6821,-2.6821,-2.6824,-2.6856,-2.6856,-2.6813,-2.6814,-2.6815,-2.6815,0,0,0,0,0,0,0,-2.686,-2.6862,-2.688,-2.686,-2.6857,-2.6844,-2.6842,-2.6862,-2.6838,-2.6832,-2.6828,-2.6827,-2.682,-2.6823,-2.6823,-2.6856,-2.6813,-2.6815,-2.6815,-2.6816,-2.6926,-2.6928,0,0,0,0,0,0,-2.6864,-2.6862,-2.688,-2.688,-2.6853,-2.6846,-2.6844,-2.6851,-2.6838,-2.6834,-2.6829,-2.6825,-2.6821,-2.6822,-2.6823,-2.6877,-2.6815,-2.6816,-2.6817,-2.6924,-2.6926,-2.6928,0,0,0,0,0,0,-2.6863,-2.6866,-2.6881,-2.687,-2.6871,-2.6848,-2.6857,-2.6852,-2.6855,-2.6836,-2.6831,-2.6836,-2.682,-2.6821,-2.6848,-2.6875,-2.6817,-2.6818,-2.6921,-2.6925,-2.6927,-2.6985,0,0,0,0,0,0,-2.6863,-2.6866,-2.6884,-2.687,-2.6871,-2.6906,-2.6858,-2.6853,-2.6857,-2.6852,-2.6841,-2.6838,-2.6818,-2.6846,-2.685,-2.6876,-2.6819,-2.6919,-2.6923,-2.6926,-2.6981,-2.699,-2.6998,0,0,0,0,0,-2.6862,-2.6901,-2.6885,-2.6887,-2.6893,-2.6908,-2.6908,-2.6885,-2.686,-2.6877,-2.6865,-2.6838,-2.6873,-2.685,-2.6853,-2.6881,-2.6917,-2.6922,-2.6926,-2.6977,-2.6988,-2.6998,0,0,0,0,0,0,-2.6918,-2.6898,-2.6881,-2.6916,-2.6914,-2.6899,-2.692,-2.6898,-2.6903,-2.6897,-2.6868,-2.6866,-2.6898,-2.6892,-2.6867,-2.6926,-2.689,-2.6896,-2.6928,-2.6938,-2.6947,-2.6946,-2.682,0,0,0,0,0,-2.6934,-2.6948,-2.6931,-2.6964,-2.6963,-2.6942,-2.6948,-2.693,-2.6927,-2.6926,-2.6915,-2.6914,-2.6924,-2.6931,-2.694,-2.6981,-2.6977,-2.7002,-2.701,-2.7017,-2.7021,-2.7042,-2.7052,-2.6944,-2.6944,-2.6944,0,0,-2.6968,-2.696,-2.697,-2.6975,-2.6971,-2.6985,-2.6942,-2.6959,-2.697,-2.6928,-2.6953,-2.6946,-2.6942,-2.6976,-2.6991,-2.6973,-2.7051,-2.7023,-2.7029,-2.7029,-2.7048,-2.7058,-2.7067,-2.6947,-2.6946,-2.6946,0,0,-2.7037,-2.7033,-2.7059,-2.7056,-2.7051,-2.7037,-2.7043,-2.7032,-2.7025,-2.705,-2.7019,-2.7032,-2.705,-2.7048,-2.705,-2.7119,-2.7094,-2.7123,-2.7167,-2.7187,-2.7195,-2.7203,-2.7226,-2.7235,-2.7128,-2.7128,-2.7128,0,-2.708,-2.71,-2.7075,-2.7095,-2.7097,-2.7061,-2.7087,-2.7086,-2.7085,-2.7087,-2.7067,-2.7089,-2.7084,-2.7117,-2.7134,-2.7137,-2.7143,-2.7123,-2.7196,-2.7203,-2.721,-2.7232,-2.7241,-2.7132,-2.7131,-2.7131,-2.7131,0,-2.7152,-2.7167,-2.719,-2.7188,-2.7194,-2.7217,-2.7195,-2.7204,-2.7187,-2.7175,-2.72,-2.7193,-2.7199,-2.7206,-2.7189,-2.7237,-2.7225,-2.7201,-2.7164,-2.7224,-2.7244,-2.7252,-2.7137,-2.7135,-2.7134,-2.7133,0,0,-2.7254,-2.7239,-2.7247,-2.7246,-2.7238,-2.7249,-2.7271,-2.7277,-2.7285,-2.7286,-2.7302,-2.7319,-2.7297,-2.7299,-2.7282,-2.73,-2.7354,-2.7273,-2.7273,-2.7287,-2.7404,-2.742,-2.7431,-2.7338,-2.734,-2.7341,-2.7404,0,-2.7318,-2.7353,-2.7332,-2.737,-2.7383,-2.735,-2.7369,-2.7366,-2.7356,-2.7366,-2.7355,-2.7367,-2.7338,-2.7338,-2.7355,-2.7344,-2.7376,-2.7339,-2.7353,-2.7353,-2.7352,-2.7441,-2.7459,-2.7518,-2.7412,-2.7413,-2.7414,0,-2.7398,-2.7401,-2.7441,-2.743,-2.7435,-2.7452,-2.7455,-2.7465,-2.7462,-2.7454,-2.7456,-2.7435,-2.7455,-2.7421,-2.7449,-2.7424,-2.7429,-2.7424,-2.7426,-2.7424,-2.7386,-2.744,-2.7537,-2.7545,-2.7426,-2.7425,-2.7424,0,-2.7465,-2.748,-2.7505,-2.7506,-2.7495,-2.7507,-2.7503,-2.7498,-2.7503,-2.7507,-2.7509,-2.7516,-2.7519,-2.7524,-2.7505,-2.7482,-2.7535,-2.7499,-2.7528,-2.7528,-2.7538,-2.7537,-2.7634,-2.7545,-2.7545,-2.7545,-2.7545,0,-2.7538,-2.7563,-2.7536,-2.7551,-2.7578,-2.7554,-2.7582,-2.7574,-2.757,-2.7584,-2.7556,-2.7569,-2.7544,-2.7555,-2.7541,-2.7565,-2.7567,-2.7561,-2.7556,-2.7562,-2.7562,-2.7562,-2.7557,-2.7547,-2.7547,-2.7546,-2.7546,0,-2.7617,-2.76,-2.7625,-2.7613,-2.761,-2.7631,-2.762,-2.7634,-2.7623,-2.764,-2.7643,-2.7625,-2.7636,-2.7618,-2.7628,-2.7618,-2.7652,-2.7642,-2.7652,-2.7648,-2.7677,-2.7674,-2.7776,-2.7788,-2.7693,-2.7694,-2.7695,0,-2.7664,-2.7682,-2.7672,-2.7678,-2.7676,-2.7687,-2.7692,-2.767,-2.7676,-2.7674,-2.7688,-2.7697,-2.7702,-2.7723,-2.7711,-2.7718,-2.7707,-2.7742,-2.7707,-2.7712,-2.7705,-2.7703,-2.7704,-2.7748,-2.775,-2.775,-2.7751,0,-2.7747,-2.7738,-2.7745,-2.775,-2.7756,-2.7759,-2.776,-2.7767,-2.7744,-2.7752,-2.7763,-2.7768,-2.7777,-2.7786,-2.7791,-2.7787,-2.7765,-2.7763,-2.7769,-2.7774,-2.7778,-2.7774,-2.7669,-2.776,-2.7759,-2.7758,-2.7758,-2.7757,-2.781,-2.7824,-2.7819,-2.7828,-2.7827,-2.7828,-2.784,-2.783,-2.7839,-2.7844,-2.7832,-2.7846,-2.7842,-2.7846,-2.7845,-2.7855,-2.784,-2.785,-2.7852,-2.7854,-2.7858,-2.7779,-2.7857,-2.7856,-2.7856,-2.7856,-2.7856,0,-2.789,-2.7885,-2.7894,-2.7896,-2.7903,-2.7883,-2.7883,-2.789,-2.7903,-2.7902,-2.7908,-2.7921,-2.793,-2.7919,-2.7926,-2.7937,-2.7927,-2.7939,-2.7937,-2.7936,-2.7872,-2.7865,-2.7947,-2.7947,-2.7947,-2.7947,-2.7947,-2.7947,-2.7932,-2.7955,-2.7945,-2.7967,-2.7963,-2.7976,-2.7977,-2.7979,-2.7977,-2.7992,-2.7999,-2.7993,-2.7987,-2.7994,-2.8001,-2.7998,-2.8001,-2.8016,-2.8009,-2.795,-2.7941,-2.7932,-2.7925,-2.8018,-2.8018,-2.8072,-2.8072,-2.8073]},{"header":{"parameterUnit":"m.s-1","parameterCategory":1,"la1":30.2991,"la2":30.254,"lo1":-89.0895,"lo2":-89.0444,"dy":0.0017,"dx":0.0017,"nx":28,"ny":28,"refTime":"2024-04-13T21:00:00:Z","depth":0,"parameterNumber":3,"parameterNumberName":"V-component_of_WINDS"},"data":[0,0,0,0,0,0,0,0,0,0,0,0,0,0,0,0,0,0,0,0,0,0,0,0,0,0,0,0,0,0,0,0,0,0,0,0,0,0,0,0,0,0,0,0,0,0,0,0,0,0,0,0,0,0,0,0,0,0,1.7662,1.7662,0,1.759,1.759,1.7589,1.7595,1.7596,1.7597,1.7598,1.752,1.7517,1.7514,0,0,0,0,0,0,0,0,0,0,0,0,0,1.7802,1.78,1.7663,1.7662,1.7661,1.7591,1.759,1.7589,1.7594,1.7596,1.7597,1.7598,1.7521,1.7518,1.7514,0,0,0,0,0,0,0,0,0,0,0,0,0,1.7737,1.7799,1.7663,1.7655,1.7654,1.7591,1.759,1.7588,1.7594,1.7596,1.7597,1.7599,1.7523,1.7518,1.7514,1.7452,0,0,1.75,1.7498,0,0,0,0,0,0,0,0,1.7741,1.7732,1.7657,1.7656,1.7654,1.7603,1.7611,1.7543,1.7594,1.7617,1.7598,1.76,1.7546,1.754,1.7523,1.7449,1.7445,1.7499,1.7496,1.7494,1.7493,0,0,0,0,0,0,0,1.7745,1.7735,1.7634,1.7656,1.7654,1.7655,1.7647,1.7598,1.7573,1.7615,1.7615,1.7607,1.7546,1.7527,1.7521,1.7444,1.7499,1.7495,1.7492,1.749,1.7316,1.7314,0,0,0,0,0,0,1.7752,1.7739,1.7636,1.7632,1.7702,1.7651,1.7642,1.7618,1.7574,1.7569,1.7605,1.7607,1.7534,1.7526,1.7518,1.7443,1.7494,1.749,1.7487,1.7318,1.7315,1.7313,0,0,0,0,0,0,1.7755,1.7743,1.7639,1.7685,1.7672,1.7647,1.7619,1.7616,1.7597,1.7567,1.7562,1.7591,1.7535,1.7525,1.7469,1.7441,1.7488,1.7484,1.732,1.7317,1.7314,1.7293,0,0,0,0,0,0,1.7759,1.7744,1.7721,1.7685,1.767,1.7592,1.7617,1.7613,1.7589,1.7591,1.7552,1.7547,1.7536,1.7476,1.7464,1.7435,1.748,1.7322,1.7319,1.7315,1.7296,1.729,1.7284,0,0,0,0,0,1.7764,1.7717,1.772,1.7707,1.7641,1.759,1.7581,1.7571,1.7587,1.7563,1.7544,1.7548,1.7446,1.747,1.7457,1.7426,1.7324,1.732,1.7316,1.7299,1.7291,1.7285,0,0,0,0,0,0,1.7749,1.7712,1.7715,1.7655,1.7626,1.7591,1.7561,1.7563,1.7527,1.753,1.7517,1.7508,1.7452,1.7434,1.7461,1.7364,1.7387,1.738,1.7379,1.7371,1.7365,1.7371,1.7476,0,0,0,0,0,1.7739,1.7702,1.7671,1.7622,1.7607,1.7586,1.7564,1.7558,1.7527,1.7515,1.7491,1.746,1.742,1.7395,1.7357,1.7294,1.7285,1.7266,1.726,1.7256,1.725,1.7214,1.7205,1.73,1.73,1.73,0,0,1.7717,1.7693,1.767,1.7618,1.7595,1.7556,1.7576,1.7534,1.7505,1.7508,1.7454,1.7435,1.74,1.734,1.7312,1.7322,1.7222,1.725,1.7247,1.7243,1.7209,1.72,1.7192,1.7297,1.7297,1.7298,0,0,1.7658,1.7636,1.7592,1.7569,1.7534,1.7521,1.751,1.7476,1.7464,1.741,1.7411,1.7376,1.7309,1.7283,1.7261,1.7193,1.7195,1.7181,1.715,1.7116,1.7109,1.7102,1.7077,1.7069,1.7175,1.7175,1.7175,0,1.7636,1.7578,1.7569,1.7527,1.7504,1.7506,1.7461,1.7439,1.7393,1.7376,1.7389,1.7305,1.7281,1.7215,1.7198,1.7181,1.7168,1.7185,1.7111,1.7104,1.7098,1.7074,1.7065,1.7174,1.7174,1.7174,1.7174,0,1.7552,1.7512,1.7481,1.7438,1.7411,1.7367,1.7351,1.7325,1.7321,1.7307,1.7251,1.7223,1.7179,1.7163,1.7159,1.7097,1.7104,1.7114,1.7136,1.7087,1.7065,1.7055,1.7171,1.7172,1.7172,1.7173,0,0,1.7481,1.7434,1.7423,1.7403,1.7365,1.7333,1.729,1.7248,1.7226,1.7194,1.7157,1.71,1.7109,1.7085,1.7078,1.7048,1.6995,1.7061,1.706,1.7049,1.6924,1.6916,1.6906,1.6997,1.6995,1.6994,1.6927,0,1.7418,1.7342,1.7333,1.7265,1.7227,1.7229,1.7191,1.7163,1.7148,1.7113,1.7097,1.7057,1.7072,1.7057,1.7027,1.7008,1.697,1.7013,1.6961,1.6959,1.6969,1.6894,1.6886,1.6824,1.6918,1.6916,1.6915,0,1.7334,1.7301,1.723,1.7197,1.7181,1.7147,1.7108,1.7075,1.7043,1.7035,1.7007,1.7004,1.6958,1.6983,1.6919,1.6949,1.6927,1.6914,1.6911,1.6905,1.6934,1.6885,1.6804,1.6794,1.6901,1.6902,1.6903,0,1.7289,1.7227,1.7176,1.7159,1.712,1.7096,1.7078,1.7048,1.7023,1.6989,1.6973,1.6934,1.6912,1.6881,1.6867,1.6887,1.6804,1.6828,1.6794,1.6795,1.6776,1.6777,1.6689,1.6763,1.6763,1.6763,1.6764,0,1.7219,1.7175,1.7155,1.7124,1.7075,1.7064,1.7015,1.6998,1.6971,1.6936,1.6935,1.6901,1.6886,1.6849,1.6838,1.6787,1.6777,1.6768,1.6765,1.6767,1.6768,1.6752,1.6756,1.6761,1.6762,1.6762,1.6762,0,1.716,1.7145,1.709,1.7057,1.7048,1.7013,1.6985,1.6954,1.694,1.6895,1.6884,1.6861,1.6818,1.6802,1.6749,1.6742,1.6682,1.6683,1.6693,1.6692,1.666,1.6663,1.6558,1.6543,1.6627,1.6627,1.6626,0,1.7116,1.7083,1.7047,1.7024,1.7005,1.6968,1.6944,1.6932,1.6906,1.6867,1.6841,1.6799,1.6765,1.6697,1.6675,1.6634,1.6634,1.66,1.6628,1.6631,1.6633,1.6635,1.6631,1.6595,1.6594,1.6593,1.6593,0,1.704,1.7034,1.7,1.6962,1.6934,1.6903,1.6874,1.6855,1.6838,1.6809,1.6767,1.674,1.6687,1.6645,1.6604,1.6585,1.6585,1.6584,1.6574,1.6576,1.6583,1.6578,1.6679,1.6586,1.6587,1.6587,1.6588,1.6588,1.6987,1.6957,1.6927,1.6889,1.6866,1.6838,1.6808,1.679,1.6754,1.6711,1.6706,1.666,1.6628,1.6574,1.6552,1.6515,1.6524,1.651,1.6506,1.6503,1.65,1.659,1.6508,1.6508,1.6508,1.6508,1.6508,0,1.691,1.6891,1.6856,1.6815,1.6785,1.679,1.6757,1.6731,1.6691,1.6662,1.6628,1.6579,1.6538,1.6513,1.6472,1.6447,1.6446,1.6437,1.6438,1.6433,1.6495,1.6507,1.6438,1.6438,1.6438,1.6438,1.6438,1.6438,1.6867,1.6817,1.6807,1.6745,1.6726,1.6682,1.6663,1.6637,1.6614,1.656,1.6526,1.6511,1.6483,1.644,1.6402,1.6396,1.6381,1.637,1.6364,1.6422,1.6429,1.6436,1.6448,1.6367,1.6367,1.6306,1.6305,1.6305]}]]